EST,Max TemperatureF,Mean TemperatureF,Min TemperatureF,Max Dew PointF,MeanDew PointF,Min DewpointF,Max Humidity, Mean Humidity, Min Humidity, Max Sea Level PressureIn, Mean Sea Level PressureIn, Min Sea Level PressureIn, Max VisibilityMiles, Mean VisibilityMiles, Min VisibilityMiles, Max Wind SpeedMPH, Mean Wind SpeedMPH, Max Gust SpeedMPH,PrecipitationIn, CloudCover, Events, WindDirDegrees
2012-1-1,35,33,30,34,29,23,99,85,71,29.76,29.59,29.44,10,8,1,29,11,40,0.00,7,Rain-Snow,264
2012-1-2,28,23,18,26,16,8,92,72,62,30.19,29.94,29.73,10,6,1,31,24,41,0.00,8,Snow,314
2012-1-3,21,16,12,14,9,6,86,71,59,30.32,30.19,30.00,10,9,1,24,15,37,0.00,5,Snow,103
2012-1-4,32,28,23,27,23,17,85,78,69,29.94,29.86,29.80,10,10,10,17,11,24,0.00,7,,256
2012-1-5,35,32,29,29,27,24,89,79,71,29.90,29.82,29.57,10,10,10,16,9,20,0.00,5,,221
2012-1-6,45,42,37,35,33,31,84,69,60,29.65,29.54,29.47,10,10,10,17,13,23,0.00,1,,235
2012-1-7,37,32,28,33,25,17,91,77,58,30.14,29.87,29.64,10,10,7,21,11,28,0.00,7,Rain-Snow,293
2012-1-8,35,31,27,29,22,17,78,71,62,30.26,30.22,30.17,10,10,4,25,9,29,0.00,7,Snow,249
2012-1-9,39,34,30,32,31,26,93,84,73,30.15,29.90,29.72,10,10,4,22,10,32,0.00,4,Rain-Snow,210
2012-1-10,41,36,31,32,29,26,84,71,56,29.97,29.89,29.78,10,10,10,17,9,22,0.00,4,,227
2012-1-11,51,40,30,35,31,28,95,77,40,29.74,29.65,29.56,10,9,5,10,6,16,0.00,0,,153
2012-1-12,35,32,28,35,31,27,100,95,87,29.53,29.45,29.37,10,5,1,17,4,25,0.00,7,Rain-Snow,19
2012-1-13,27,22,16,26,15,10,93,83,73,29.92,29.64,29.37,10,4,1,22,18,32,0.00,8,Snow,354
2012-1-14,16,12,7,10,5,3,85,75,61,30.19,30.09,29.95,10,10,3,14,7,,0.00,4,Snow,84
2012-1-15,24,14,5,20,12,3,87,82,76,30.32,30.26,30.17,10,10,4,14,8,21,0.00,6,Snow,142
2012-1-16,34,27,20,31,21,14,92,81,72,30.10,29.87,29.73,10,9,7,14,10,21,0.00,6,,152
2012-1-17,33,26,20,30,24,12,96,85,69,29.97,29.77,29.64,10,6,0,26,14,39,0.00,8,Snow,359
2012-1-18,21,20,19,15,12,9,85,72,64,30.15,30.05,29.81,10,9,2,23,13,31,0.00,8,Snow,231
2012-1-19,25,18,10,23,9,-1,95,75,58,30.02,29.76,29.54,10,3,0,28,18,37,0.00,8,Snow,276
2012-1-20,16,14,11,10,6,0,86,72,62,30.18,30.14,30.07,10,8,1,16,11,23,0.00,8,Snow,240
2012-1-21,21,13,5,15,8,-5,87,70,44,30.25,30.19,30.13,10,9,2,10,6,,0.00,6,Snow,244
2012-1-22,34,24,15,30,19,8,99,77,63,30.19,29.96,29.69,10,9,2,15,8,23,0.00,4,,132
2012-1-23,44,38,31,42,36,31,100,96,88,29.69,29.41,29.24,10,6,2,21,10,29,0.00,8,Rain-Snow,159
2012-1-24,32,28,24,30,21,15,94,78,67,30.29,29.97,29.60,10,6,1,25,20,33,0.00,8,Snow,283
2012-1-25,32,29,26,27,24,21,88,82,75,30.34,30.26,30.14,10,10,10,9,5,,0.00,7,,180
2012-1-26,34,28,21,32,26,21,96,89,84,30.10,29.89,29.67,10,8,4,14,5,18,0.00,7,,149
2012-1-27,35,32,30,33,27,22,100,80,67,29.84,29.71,29.57,10,8,2,20,9,28,0.00,5,,271
2012-1-28,34,30,26,32,26,19,99,86,68,29.82,29.69,29.60,10,5,0,29,12,39,0.00,8,Snow,256
2012-1-29,27,24,22,18,15,11,73,66,59,30.11,29.93,29.84,10,10,5,24,17,34,0.00,8,Snow,284
2012-1-30,27,21,15,23,16,9,91,77,64,30.14,30.02,29.86,10,9,1,14,9,21,0.00,7,Snow,146
2012-1-31,45,34,23,39,30,22,94,84,76,29.83,29.71,29.62,10,9,5,16,6,23,0.00,1,,157